Flag for Germany Weather past 2 weeks in Amberg, Bavaria, Germany

Now
54 °F

Passing clouds.


Feels Like: 54 °F
Forecast: 47 / 67 °F
Wind: 2 mph from North

Location: Hohenfels

Current Time: May 28, 2015 at 10:29:16 AM

Latest Report: May 28, 2015 at 9:58 AM


Visibility: N/A

Pressure: 30.13 "Hg

Humidity: 58%

Dew point: 39 °F

Location of AmbergLocation

Historic Weather in Amberg — Graph

°F

Amberg temperature yesterday

Maximum temperature yesterday: 54 °F (at 12:58 PM)
Minimum temperature yesterday: 39 °F (at 11:58 PM)
Average temperature yesterday: 49 °F

Past Weeks' High & Low Weather Summary

 TemperatureHumidityPressure
High73 °F (May 18, 4:58 PM)100% (May 20, 7:58 PM)30.35 "Hg (May 20, 7:58 PM)
Low36 °F (May 22, 4:58 AM)30% (May 14, 5:58 PM)29.72 "Hg (May 19, 2:58 AM)
Average54 °F70%30.05 "Hg
* Reported May 13 8:58 AM — May 28 8:58 AM, Amberg, Weather by CustomWeather, © 2015

Note: Actual official high and low records may vary slightly from our data, if they occured in-between our weather recording intervals... More about our weather records

Advertising

Amberg weather history for previous 24 hours

 ConditionsComfort  
Time TempWeatherWind HumidityBarometerVisibility
8:58 AM
Thu, May 28
50 °FOvercast.3 mph71%30.14 "HgN/A
7:58 AM45 °FOvercast.1 mph81%30.14 "HgN/A
6:58 AM43 °FOvercast.No wind87%30.14 "HgN/A
5:58 AM41 °FOvercast.1 mph87%30.15 "HgN/A
4:58 AM39 °FOvercast.No wind87%30.15 "HgN/A
3:58 AM39 °FOvercast.No wind87%30.17 "HgN/A
2:58 AM37 °FOvercast.2 mph87%30.17 "HgN/A
1:58 AM37 °FOvercast.2 mph81%30.19 "HgN/A
12:58 AM36 °FClear.2 mph87%30.21 "HgN/A
11:58 PM
Wed, May 27
39 °FClear.2 mph81%30.21 "HgN/A
10:58 PM41 °FClear.2 mph81%30.21 "HgN/A
9:58 PM46 °FPartly sunny.1 mph66%30.21 "HgN/A
8:58 PM50 °FOvercast.3 mph54%30.21 "HgN/A
7:58 PM52 °FOvercast.6 mph54%30.21 "HgN/A
6:58 PM52 °FOvercast.5 mph50%30.21 "HgN/A
5:58 PM52 °FOvercast.6 mph50%30.22 "HgN/A
4:58 PM54 °FOvercast.8 mph51%30.22 "HgN/A
3:58 PM54 °FOvercast.7 mph54%30.21 "HgN/A
2:58 PM52 °FMostly cloudy.7 mph58%30.22 "HgN/A
1:58 PM52 °FMostly cloudy.12 mph58%30.22 "HgN/A
12:58 PM54 °FOvercast.12 mph54%30.21 "HgN/A
10:58 AM52 °FCloudy.6 mph62%30.21 "HgN/A
Weather by CustomWeather, © 2015

See weather overviewHow to use our weather pages